sat.trackr.live / text

‹ back to catalog

STARLINK-2697

NORAD 48474 · 2021-040AY

PAYLOAD ACTIVE UNKNOWN

§ Identity

Operator
Country
US
Launch date
2021-05-09
Launch site
AFETR
Launch vehicle
Mass (kg)
RCS (m²)

Purposes: comms

External: N2YO · Heavens-Above · Gunter

§ Orbital elements

Epoch: 2026-05-24T21:01:24.310848Z

Period
94.11 min
Inclination
53.1607°
Eccentricity
0.0001231
Mean motion
15.30190356 rev/d
Perigee alt
474.4 km
Apogee alt
476.1 km
Semi-major
6,853.4 km
B*
2.9991e-5
RAAN
197.3278°
Arg perigee
90.3960°
Mean anomaly
269.7181°
Rev number
27,815

§ Raw data

STARLINK-26971 48474U 21040AY  26144.87597582  .00000529  00000+0  29991-4 0  99912 48474  53.1607 197.3278 0001231  90.3960 269.7181 15.30190356278152

JSON: /api/v1/satellites/48474 · /tle

For live sub-satellite position, see the globe view (requires WebGL).

§ Visibility from observer

Set your observer location to see the next 7 days of passes ≥ 10°. The values pass through the URL so the page stays shareable.

No JS? Fill the form by hand. The geolocation button needs JavaScript.